WetterOnline ( http://www.wetteronline.de )

Wetter aktuell Göttingen

Aktuelles Wetter: Göttingen (171m)

6-stündlich | Neueste Meldungen
Ortszeit Temperatur Wetter
Fr, 20.07. 2:00 12.5° C wolkig
Do, 19.07. 20:00 25.4° C wolkenlos
Do, 19.07. 14:00 24.6° C wolkenlos
Do, 19.07. 8:00 15.4° C wolkenlos
Do, 19.07. 2:00 10.7° C wolkenlos
Mi, 18.07. 20:00 24.1° C fast wolkenlos
Mi, 18.07. 14:00 26.2° C fast wolkenlos
Mi, 18.07. 8:00 18.2° C wolkig
Ortszeit Temperatur Wetter
Fr, 20.07. 3:00 12.9° C bedeckt
Fr, 20.07. 2:50 12.9° C bedeckt
Fr, 20.07. 2:40 12.6° C bedeckt
Fr, 20.07. 2:30 13.4° C bedeckt
Fr, 20.07. 2:20 13.4° C bedeckt
Fr, 20.07. 2:10 13.3° C bewölkt
Fr, 20.07. 2:00 12.5° C wolkig
Fr, 20.07. 1:30 13.1° C wolkig
Fr, 20.07. 1:00 14.0° C wolkig
Fr, 20.07. 0:30 12.9° C leicht bewölkt
Fr, 20.07. 0:00 16.2° C leicht bewölkt
Ortszeit Relative Feuchte Sichtweite
Fr, 20.07. 2:00 78% 35 km
Do, 19.07. 20:00 30% 60 km
Do, 19.07. 14:00 31% 30 km
Do, 19.07. 8:00 63% 28 km
Do, 19.07. 2:00 86% 26 km
Mi, 18.07. 20:00 39% 30 km
Mi, 18.07. 14:00 33% 30 km
Mi, 18.07. 8:00 66% 6 km
Ortszeit Relative Feuchte Sichtweite
Fr, 20.07. 3:00 78% 28 km
Fr, 20.07. 2:50 78% -
Fr, 20.07. 2:40 81% -
Fr, 20.07. 2:30 77% 35 km
Fr, 20.07. 2:20 77% -
Fr, 20.07. 2:10 75% -
Fr, 20.07. 2:00 78% 35 km
Fr, 20.07. 1:30 74% 35 km
Fr, 20.07. 1:00 72% 35 km
Fr, 20.07. 0:30 76% 28 km
Fr, 20.07. 0:00 62% 11 km
Ortszeit Niederschlagsmenge Niederschlagsart
Fr, 20.07. 2:00 0.0 l/m2 in 6 Std. -
Do, 19.07. 20:00 0.0 l/m2 in 12 Std. -
Do, 19.07. 14:00 0.0 l/m2 in 6 Std. -
Do, 19.07. 8:00 0.0 l/m2 in 12 Std. -
Do, 19.07. 2:00 0.0 l/m2 in 6 Std. -
Mi, 18.07. 20:00 0.0 l/m2 in 12 Std. -
Mi, 18.07. 14:00 0.0 l/m2 in 6 Std. -
Mi, 18.07. 8:00 0.1 l/m2 in 12 Std. Regen
Ortszeit Niederschlagsmenge Niederschlagsart
Fr, 20.07. 3:00 0.0 l/m2 in 1 Std. -
Fr, 20.07. 2:50 keine Meldung -
Fr, 20.07. 2:40 keine Meldung -
Fr, 20.07. 2:30 0.0 l/m2 in 1 Std. -
Fr, 20.07. 2:20 keine Meldung -
Fr, 20.07. 2:10 keine Meldung -
Fr, 20.07. 2:00 0.0 l/m2 in 1 Std. -
Fr, 20.07. 1:30 0.0 l/m2 in 1 Std. -
Fr, 20.07. 1:00 0.0 l/m2 in 1 Std. -
Fr, 20.07. 0:30 0.0 l/m2 in 1 Std. -
Fr, 20.07. 0:00 0.0 l/m2 in 1 Std. -
Ortszeit Stärke Spitze Richtung
km/h Bft. km/h Grad Sektor
Fr, 20.07. 2:00 4 1 18 100° O
Do, 19.07. 20:00 9 2 31 350° N
Do, 19.07. 14:00 19 3 31 340° N
Do, 19.07. 8:00 2 1 7 210° SW
Do, 19.07. 2:00 0 0 29 - -
Mi, 18.07. 20:00 17 3 37 350° N
Mi, 18.07. 14:00 19 3 41 290° W
Mi, 18.07. 8:00 15 3 28 290° W
Ortszeit Stärke Spitze Richtung
km/h Bft. km/h Grad Sektor
Fr, 20.07. 3:00 2 1 11 20° N
Fr, 20.07. 2:50 2 1 - 20° N
Fr, 20.07. 2:40 0 0 - 310° NW
Fr, 20.07. 2:30 2 1 11 170° S
Fr, 20.07. 2:20 2 1 - 170° S
Fr, 20.07. 2:10 6 1 - 80° O
Fr, 20.07. 2:00 4 1 7 100° O
Fr, 20.07. 1:30 4 1 7 150° SO
Fr, 20.07. 1:00 9 2 13 120° SO
Fr, 20.07. 0:30 4 1 7 100° O
Fr, 20.07. 0:00 4 1 11 260° W
Ortszeit Untergrenze Bedeckung Gattung
total tief tief mittel hoch
Fr, 20.07. 2:00 2100 m 7/8 3/8 - - -
Do, 19.07. 20:00 - 0/8 0/8 - - -
Do, 19.07. 14:00 - 0/8 0/8 - - -
Do, 19.07. 8:00 - 0/8 0/8 - - -
Do, 19.07. 2:00 - 0/8 0/8 - - -
Mi, 18.07. 20:00 10500 m 2/8 0/8 - - -
Mi, 18.07. 14:00 1800 m 1/8 1/8 - - -
Mi, 18.07. 8:00 1470 m 5/8 5/8 - - -
Ortszeit Bedeckungsgrad in Achtel und Wolkenuntergrenze
Fr, 20.07. 3:00 8(2400m)
Fr, 20.07. 2:50 8(2400m)
Fr, 20.07. 2:40 8(2100m)
Fr, 20.07. 2:30 8(2100m)
Fr, 20.07. 2:20 8(2100m)
Fr, 20.07. 2:10 7(2100m) 7(8700m)
Fr, 20.07. 2:00 3(2100m) 5(8700m) 7(9000m)
Fr, 20.07. 1:30 3(2400m) 4(9000m) 6(10500m)
Fr, 20.07. 1:00 1(2400m) 6(9000m) 7(10500m)
Fr, 20.07. 0:30 5(10500m)
Fr, 20.07. 0:00 4(10500m)
Ortszeit Luftdruck NN (hPa) Tendenz (hPa in 3 Std.)
Fr, 20.07. 2:00 1017 - 0,1
Do, 19.07. 20:00 1016 - 0,7
Do, 19.07. 14:00 1018 - 1,0
Do, 19.07. 8:00 1020 + 0,2
Do, 19.07. 2:00 1020 + 0,7
Mi, 18.07. 20:00 1017 + 0,1
Mi, 18.07. 14:00 1017 - 0,3
Mi, 18.07. 8:00 1018 + 1,1
Ortszeit Luftdruck NN (hPa) Tendenz (hPa in 3 Std.)
Fr, 20.07. 3:00 1017 - 0,2
Fr, 20.07. 2:50 1017 keine Meldung
Fr, 20.07. 2:40 1017 keine Meldung
Fr, 20.07. 2:30 1017 - 0,1
Fr, 20.07. 2:20 1017 keine Meldung
Fr, 20.07. 2:10 1017 keine Meldung
Fr, 20.07. 2:00 1017 - 0,1
Fr, 20.07. 1:30 1018 + 0,3
Fr, 20.07. 1:00 1017 + 0,4
Fr, 20.07. 0:30 1018 + 0,7
Fr, 20.07. 0:00 1017 + 0,5
Ortszeit Schneehöhe (cm)
Fr, 20.07. 2:00 -
Do, 19.07. 20:00 -
Do, 19.07. 14:00 -
Do, 19.07. 8:00 -
Do, 19.07. 2:00 -
Mi, 18.07. 20:00 -
Mi, 18.07. 14:00 -
Mi, 18.07. 8:00 -
Ortszeit Schneehöhe (cm)
Fr, 20.07. 3:00 -
Fr, 20.07. 2:50 -
Fr, 20.07. 2:40 -
Fr, 20.07. 2:30 -
Fr, 20.07. 2:20 -
Fr, 20.07. 2:10 -
Fr, 20.07. 2:00 -
Fr, 20.07. 1:30 -
Fr, 20.07. 1:00 -
Fr, 20.07. 0:30 -
Fr, 20.07. 0:00 -
Link zu dieser Seite / Seite empfehlen

Das Wetter in ...